Regional Weather Roundup
Issued by NWS

Home | Current Version | Previous Version | Graphics & Text | Print | Product List | Glossary On
Versions: 1 2 3 4 5 6 7 8 9 10 11 12 13 14 15 16 17 18 19 20 21 22 23 24 25 26 27 28 29 30 31 32 33 34 35 36 37 38 39 40 41 42 43 44 45 46 47 48 49 50
000
ASUS43 KMPX 182201
RWRMN
WEATHER ROUNDUP FOR MINNESOTA
NATIONAL WEATHER SERVICE TWIN CITIES/CHANHASSEN MN
400 PM CST WED JAN 18 2017


NOTE: "FAIR" INDICATES FEW OR NO CLOUDS BELOW 12,000 FEET WITH NO
SIGNIFICANT WEATHER AND/OR OBSTRUCTIONS TO VISIBILITY. N/A MEANS
CURRENT SKY AND/OR WEATHER CONDITIONS ARE NOT AVAILABLE.

MNZ060>063-068>070-182300-
   Twin Cities Metro

CITY           SKY/WX    TMP DP  RH WIND       PRES   REMARKS
TWIN CITIES    CLEAR     41  31  67 SW9       29.86S
ST PAUL        CLEAR     38  32  79 S12       29.87S
CRYSTAL        CLEAR     40  29  64 S9        29.84S
BLAINE         CLEAR     43  32  65 SW9       29.84S
LAKEVILLE      CLEAR     37  32  81 S7        29.86S
EDEN PRAIRIE   CLEAR     39  31  72 S9        29.85S
SOUTH ST PAUL  CLEAR     39  32  74 S9        29.87S
LAKE ELMO      FAIR      37  32  81 S8        29.87S
$$
MNZ001>005-007-008-013>017-022>024-027-028-182300-
   Northwest Minnesota

CITY           SKY/WX    TMP DP  RH WIND       PRES   REMARKS
BEMIDJI        CLOUDY    41  28  60 SE3       29.71S
HALLOCK        CLOUDY    28  25  86 S16       29.65S WCI  17
ROSEAU         CLOUDY    34  27  75 S7        29.67F WCI  28
WARROAD        CLOUDY    30  25  80 CALM      29.68S
THIEF RVR FALL   N/A     32  24  72 S7        29.71R WCI  26
CROOKSTON      CLOUDY    28  25  86 S12       29.71R WCI  18
FOSSTON        CLOUDY    36  25  64 S7        29.71S
DETROIT LAKES  CLEAR     41  28  60 SE7       29.73R
MOORHEAD       CLEAR     32  27  80 S10       29.73R WCI  24
PARK RAPIDS    CLEAR     38  24  57 S9        29.73R
MAHNOMEN       FAIR      35  26  71 S10       29.71R WCI  27
$$
MNZ006-009>011-018-025>026-182300-
   North Central Minnesota

CITY           SKY/WX    TMP DP  RH WIND       PRES   REMARKS
BAUDETTE       CLOUDY    36  24  62 S8        29.69R
FLAG ISLAND    CLOUDY    27  21  80 SE5       29.68S WCI  21
INTL FALLS     CLOUDY    38  24  57 S3        29.72R
WASKISH        CLOUDY    41  27  56 CALM      29.71R
BIG FORK       CLOUDY    39  27  60 S3        29.73S
LONGVILLE      CLOUDY    43  25  49 S8        29.75R
GRAND RAPIDS   CLOUDY    43  26  51 SE8       29.76S
CRANE LAKE     CLEAR     36  25  64 CALM      29.75S
ORR            CLOUDY    37  23  56 CALM      29.72S
COOK           CLOUDY    39  27  60 CALM      29.75S
WALKER         FAIR      43  26  51 S3        29.73S
$$
MNZ012-019>021-037-182300-
   Northeast Minnesota

CITY           SKY/WX    TMP DP  RH WIND       PRES   REMARKS
DULUTH         CLOUDY    39  27  62 SW7       29.78R
ELY            CLOUDY    37  25  60 CALM      29.75R
HIBBING        CLOUDY    41  25  53 VRB3      29.75S
EVELETH        CLOUDY    40  22  48 S5        29.77R
DULUTH HARBOR  CLOUDY    41  28  60 CALM      29.81R
TWO HARBORS    CLOUDY    43  28  56 SW6       29.76S
SILVER BAY     CLOUDY    39  28  65 S5        29.75R
GRAND MARAIS     N/A     37  33  85 W13       29.77S
G MARAIS ARPRT CLOUDY    36  27  69 CALM      29.74R
$$
MNZ029>031-032-039>041-046>048-054>057-064-182300-
   West Central Minnesota

CITY           SKY/WX    TMP DP  RH WIND       PRES   REMARKS
FERGUS FALLS   CLEAR     36  27  69 S12       29.79R
WHEATON        CLEAR     45  36  70 S8        29.76S
MORRIS         CLEAR     36  30  80 SE9       29.76R
ALEXANDRIA     CLEAR     37  27  67 S9        29.77S
ELBOW LAKE     FAIR      34  28  81 E9        29.76R HAZE    WCI  26
WADENA         CLEAR     37  27  65 SE8       29.75R
GLENWOOD       CLEAR     36  28  75 S10       29.78S
APPLETON       CLEAR     39  28  65 S7        29.77S
ORTONVILLE     CLEAR     39  27  60 CALM      29.76S
MADISON        CLEAR     39  30  70 S6        29.77S
WILLMAR        FAIR      36  32  87 CALM      29.83R
$$
MNZ033>034-036-042>043-049>051-058-059-182300-
   Central Minnesota

CITY           SKY/WX    TMP DP  RH WIND       PRES   REMARKS
ST CLOUD       CLEAR     37  30  75 S9        29.81F
SAUK CENTRE    FAIR      35  29  80 SE9       29.79S WCI  27
PAYNESVILLE    CLEAR     37  30  74 S5        29.81S
AITKIN         CLEAR     41  23  48 S8        29.77S
PINE RIVER     CLEAR     39  27  60 S7        29.80R
BRAINERD       CLEAR     36  27  69 S10       29.78S
STAPLES        CLEAR     37  25  60 S10       29.77R
LONG PRAIRIE   FAIR      36  28  75 SE12      29.78S
LITTLE FALLS   CLEAR     37  27  65 S6        29.80S
LITCHFIELD     CLEAR     39  34  81 S3        29.83R
BUFFALO        CLEAR     38  31  74 S5        29.85S
MAPLE LAKE     CLEAR     39  32  77 S5        29.84S
HUTCHINSON     CLOUDY    37  34  87 SE6       29.84S
$$
MNZ037-044-045-052-053-182300-
   East Central Minnesota

CITY           SKY/WX    TMP DP  RH WIND       PRES   REMARKS
PRINCETON      CLEAR     39  30  70 S6        29.83S
MORA           CLEAR     37  28  70 S8        29.83S
CAMBRIDGE      CLEAR     43  30  61 S8        29.82R
RUSH CITY      CLEAR     41  28  60 S7        29.83S
MOOSE LAKE     CLEAR     39  27  60 S6        29.78F
HINCKLEY       FAIR      39  30  70 S9        29.82S
CLOQUET        CLEAR     39  25  56 S8        29.78S
MCGREGOR       CLEAR     39  28  65 SW3       29.78S
$$
MNZ071>073-080-081-089-090-097-098-182300-
   Southwest Minnesota

CITY           SKY/WX    TMP DP  RH WIND       PRES   REMARKS
MONTEVIDEO     CLEAR     43  30  61 CALM      29.81R
GRANITE FALLS  CLEAR     37  32  81 S7        29.81S
CANBY            N/A     43  28  55 SW10      29.76F
MARSHALL       CLEAR     39  32  76 S13       29.79S
REDWOOD FALLS  CLEAR     39  33  79 S10       29.81S
OLIVIA         CLEAR     39  32  75 S6        29.81S
PIPESTONE      SUNNY     37  34  87 S7        29.80S
WINDOM         CLEAR     41  36  81 S8        29.83S
WORTHINGTON    SUNNY     41  37  86 S12       29.83R
JACKSON        SUNNY     37  34  87 S8        29.85R
TRACY          CLEAR     40  34  80 SW17      29.79S
SLAYTON        SUNNY     37  34  86 S10       29.81S
$$
MNZ065>067-074>077-082>085-091>093-182300-
   South Central Minnesota

CITY           SKY/WX    TMP DP  RH WIND       PRES   REMARKS
MANKATO        CLEAR     39  34  82 S8        29.87S
NEW ULM        CLEAR     37  34  87 S9        29.84S
ST JAMES       CLEAR     39  36  87 S7        29.86S
FAIRMONT       CLEAR     39  36  89 S10       29.87R
GLENCOE        CLEAR     38  35  86 S7        29.84S
FARIBAULT      CLEAR     37  34  87 S10       29.88S
OWATONNA       CLEAR     37  32  81 S7        29.89R
WASECA         CLEAR     36  32  87 S5        29.89S
ALBERT LEA     CLEAR     39  36  87 S9G16     29.89R
$$
MNZ078>079-086>088-094>096-182300-
   Southeast Minnesota

CITY           SKY/WX    TMP DP  RH WIND       PRES   REMARKS
ROCHESTER      CLEAR     33  31  92 S9        29.91R WCI  25
RED WING       CLEAR     39  30  70 S7        29.89S
STANTON        CLEAR     38  32  79 S10       29.86S
DODGE CENTER   CLEAR     34  32  93 S9        29.89S FOG     WCI  26
WINONA         CLEAR     36  32  87 S5        29.95R
AUSTIN         CLEAR     34  30  86 S9        29.91R WCI  26
PRESTON        CLOUDY    31  30  94 S15       29.92R FOG     WCI  20
$$
ABBREVIATIONS USED IN REMARKS
   TC - TEMPERATURES IN CELSIUS
  WCI - WIND CHILL INDEX
   HX - HEAT INDEX
  VSB - VISIBILITY
$$




USA.gov is the U.S. government's official web portal to all federal, state and local government web resources and services.